Time,TemperatureF,DewpointF,PressureIn,WindDirection,WindDirectionDegrees,WindSpeedMPH,WindSpeedGustMPH,Humidity,HourlyPrecipIn,Conditions,Clouds,dailyrainin,SolarRadiationWatts/m^2,SoftwareType,DateUTC
2013-07-02 01:00:00,59.0,43.0,-100.00,East,90,1.0,-999.0,55,-99.99,,,-99.99,0.000000,,2013-07-02 05:00:00,
2013-07-02 01:43:00,59.0,43.0,-100.00,East,90,1.0,-999.0,55,-99.99,,,-99.99,0.000000,,2013-07-02 05:43:00,
2013-07-02 01:53:00,59.0,43.0,-100.00,East,90,1.0,-999.0,55,-99.99,,,-99.99,0.000000,,2013-07-02 05:53:00,
2013-07-02 02:00:00,58.0,43.0,-100.00,ESE,112,0.0,-999.0,56,-99.99,,,-99.99,0.000000,,2013-07-02 06:00:00,
2013-07-02 02:43:00,58.0,43.0,-100.00,ESE,112,0.0,-999.0,56,-99.99,,,-99.99,0.000000,,2013-07-02 06:43:00,
2013-07-02 02:53:00,58.0,43.0,-100.00,ESE,112,0.0,-999.0,56,-99.99,,,-99.99,0.000000,,2013-07-02 06:53:00,
2013-07-02 03:00:00,58.0,42.0,-100.00,ESE,112,0.0,-999.0,54,-99.99,,,-99.99,0.000000,,2013-07-02 07:00:00,
2013-07-02 03:44:00,58.0,42.0,-100.00,ESE,112,0.0,-999.0,54,-99.99,,,-99.99,0.000000,,2013-07-02 07:44:00,
2013-07-02 03:53:00,58.0,42.0,-100.00,ESE,112,0.0,-999.0,54,-99.99,,,-99.99,0.000000,,2013-07-02 07:53:00,
2013-07-02 04:00:00,58.0,43.0,-100.00,East,90,0.0,-999.0,57,-99.99,,,-99.99,0.000000,,2013-07-02 08:00:00,
2013-07-02 04:44:00,58.0,43.0,-100.00,East,90,0.0,-999.0,57,-99.99,,,-99.99,0.000000,,2013-07-02 08:44:00,
2013-07-02 04:53:00,58.0,43.0,-100.00,East,90,0.0,-999.0,57,-99.99,,,-99.99,0.000000,,2013-07-02 08:53:00,
2013-07-02 05:00:00,57.0,46.0,-100.00,ESE,112,1.0,-999.0,66,-99.99,,,-99.99,0.000000,,2013-07-02 09:00:00,
2013-07-02 05:43:00,57.0,46.0,-100.00,ESE,112,1.0,-999.0,66,-99.99,,,-99.99,0.000000,,2013-07-02 09:43:00,
2013-07-02 05:52:00,57.0,46.0,-100.00,ESE,112,1.0,-999.0,66,-99.99,,,-99.99,0.000000,,2013-07-02 09:52:00,
2013-07-02 07:00:00,54.0,50.0,-100.00,East,90,0.0,-999.0,86,-99.99,,,-99.99,6.960000,,2013-07-02 11:00:00,
2013-07-02 07:42:00,54.0,50.0,-100.00,East,90,0.0,-999.0,86,-99.99,,,-99.99,6.960000,,2013-07-02 11:42:00,
2013-07-02 07:52:00,54.0,50.0,-100.00,East,90,0.0,-999.0,86,-99.99,,,-99.99,6.960000,,2013-07-02 11:52:00,
2013-07-02 09:00:00,56.0,54.0,-100.00,SSE,157,0.0,-999.0,93,0.02,,,-99.99,92.800003,,2013-07-02 13:00:00,
2013-07-02 09:43:00,56.0,54.0,-100.00,SSE,157,0.0,-999.0,93,0.02,,,-99.99,92.800003,,2013-07-02 13:43:00,
2013-07-02 09:52:00,56.0,54.0,-100.00,SSE,157,0.0,-999.0,93,0.02,,,-99.99,92.800003,,2013-07-02 13:52:00,
2013-07-02 10:00:00,56.0,54.0,-100.00,ESE,112,1.0,-999.0,92,0.04,,,-99.99,66.120003,,2013-07-02 14:00:00,
2013-07-02 10:43:00,56.0,54.0,-100.00,ESE,112,1.0,-999.0,92,0.04,,,-99.99,66.120003,,2013-07-02 14:43:00,
2013-07-02 10:53:00,56.0,54.0,-100.00,ESE,112,1.0,-999.0,92,0.04,,,-99.99,66.120003,,2013-07-02 14:53:00,
2013-07-02 11:00:00,57.0,55.0,-100.00,ESE,112,1.0,-999.0,93,-99.99,,,-99.99,107.879997,,2013-07-02 15:00:00,
2013-07-02 11:44:00,57.0,55.0,-100.00,ESE,112,1.0,-999.0,93,-99.99,,,-99.99,107.879997,,2013-07-02 15:44:00,
2013-07-02 11:53:00,57.0,55.0,-100.00,ESE,112,1.0,-999.0,93,-99.99,,,-99.99,107.879997,,2013-07-02 15:53:00,
2013-07-02 12:00:00,60.0,57.0,-100.00,ESE,112,1.0,-999.0,88,-99.99,,,-99.99,315.519989,,2013-07-02 16:00:00,
2013-07-02 12:43:00,60.0,57.0,-100.00,ESE,112,1.0,-999.0,88,-99.99,,,-99.99,315.519989,,2013-07-02 16:43:00,
2013-07-02 12:52:00,60.0,57.0,-100.00,ESE,112,1.0,-999.0,88,-99.99,,,-99.99,315.519989,,2013-07-02 16:52:00,
2013-07-02 13:00:00,64.0,57.0,-100.00,ESE,112,1.0,-999.0,78,-99.99,,,-99.99,306.239990,,2013-07-02 17:00:00,
2013-07-02 13:53:00,64.0,57.0,-100.00,ESE,112,1.0,-999.0,78,-99.99,,,-99.99,306.239990,,2013-07-02 17:53:00,
2013-07-02 15:00:00,68.0,59.0,-100.00,ESE,112,2.0,-999.0,72,-99.99,,,-99.99,343.359985,,2013-07-02 19:00:00,
2013-07-02 15:43:00,68.0,59.0,-100.00,ESE,112,2.0,-999.0,72,-99.99,,,-99.99,343.359985,,2013-07-02 19:43:00,
2013-07-02 15:53:00,68.0,59.0,-100.00,ESE,112,2.0,-999.0,72,-99.99,,,-99.99,343.359985,,2013-07-02 19:53:00,
2013-07-02 17:00:00,70.0,60.0,-100.00,SSE,157,1.0,-999.0,70,-99.99,,,-99.99,185.600006,,2013-07-02 21:00:00,
2013-07-02 17:44:00,70.0,60.0,-100.00,SSE,157,1.0,-999.0,70,-99.99,,,-99.99,185.600006,,2013-07-02 21:44:00,
2013-07-02 17:52:00,70.0,60.0,-100.00,SSE,157,1.0,-999.0,70,-99.99,,,-99.99,185.600006,,2013-07-02 21:52:00,
2013-07-02 19:00:00,69.0,59.0,-100.00,East,90,1.0,-999.0,70,-99.99,,,-99.99,69.599998,,2013-07-02 23:00:00,
2013-07-02 19:44:00,69.0,59.0,-100.00,East,90,1.0,-999.0,70,-99.99,,,-99.99,69.599998,,2013-07-02 23:44:00,
2013-07-02 19:52:00,69.0,59.0,-100.00,East,90,1.0,-999.0,70,-99.99,,,-99.99,69.599998,,2013-07-02 23:52:00,
2013-07-02 20:00:00,68.0,59.0,-100.00,East,90,1.0,-999.0,71,-99.99,,,-99.99,63.799999,,2013-07-03 00:00:00,
2013-07-02 20:44:00,68.0,59.0,-100.00,East,90,1.0,-999.0,71,-99.99,,,-99.99,63.799999,,2013-07-03 00:44:00,
2013-07-02 20:52:00,68.0,59.0,-100.00,East,90,1.0,-999.0,71,-99.99,,,-99.99,63.799999,,2013-07-03 00:52:00,
2013-07-02 21:00:00,66.0,54.0,-100.00,ESE,112,1.0,-999.0,66,-99.99,,,-99.99,11.600000,,2013-07-03 01:00:00,
2013-07-02 21:43:00,66.0,54.0,-100.00,ESE,112,1.0,-999.0,66,-99.99,,,-99.99,11.600000,,2013-07-03 01:43:00,
2013-07-02 21:59:00,66.0,54.0,-100.00,ESE,112,1.0,-999.0,66,-99.99,,,-99.99,11.600000,,2013-07-03 01:59:00,
2013-07-02 23:00:00,62.0,51.0,-100.00,ESE,112,1.0,-999.0,66,-99.99,,,-99.99,0.000000,,2013-07-03 03:00:00,
2013-07-02 23:49:00,62.0,51.0,-100.00,ESE,112,1.0,-999.0,66,-99.99,,,-99.99,0.000000,,2013-07-03 03:49:00,